TimePST,TemperatureF,Dew PointF,Humidity,Sea Level PressureIn,VisibilityMPH,Wind Direction,Wind SpeedMPH,Gust SpeedMPH,PrecipitationIn,Events,Conditions,WindDirDegrees,DateUTC
12:15 AM,33.8,28.4,81,29.85,10.0,SW,3.5,-,N/A,,Overcast,220,2013-02-20 08:15:00
12:35 AM,33.8,30.2,87,29.85,10.0,SW,4.6,-,N/A,,Overcast,220,2013-02-20 08:35:00
12:55 AM,33.8,30.2,87,29.85,10.0,Calm,Calm,-,N/A,,Overcast,0,2013-02-20 08:55:00
1:15 AM,33.8,30.2,87,29.86,10.0,Calm,Calm,-,N/A,,Overcast,0,2013-02-20 09:15:00
1:35 AM,33.8,30.2,87,29.86,10.0,West,3.5,-,N/A,,Overcast,270,2013-02-20 09:35:00
1:55 AM,32.0,28.4,87,29.86,10.0,Calm,Calm,-,N/A,,Overcast,0,2013-02-20 09:55:00
2:15 AM,32.0,28.4,87,29.86,10.0,Calm,Calm,-,N/A,,Overcast,0,2013-02-20 10:15:00
2:35 AM,32.0,28.4,87,29.87,10.0,South,4.6,-,N/A,,Overcast,180,2013-02-20 10:35:00
2:55 AM,33.8,28.4,81,29.87,10.0,SSW,3.5,-,N/A,,Overcast,200,2013-02-20 10:55:00
3:15 AM,33.8,28.4,81,29.87,10.0,WSW,3.5,-,N/A,,Overcast,250,2013-02-20 11:15:00
3:35 AM,33.8,28.4,81,29.87,10.0,West,3.5,-,N/A,,Overcast,260,2013-02-20 11:35:00
3:55 AM,32.0,28.4,87,29.87,10.0,WSW,3.5,-,N/A,,Overcast,250,2013-02-20 11:55:00
4:15 AM,33.8,28.4,81,29.88,10.0,WSW,4.6,-,N/A,,Overcast,250,2013-02-20 12:15:00
4:35 AM,32.0,28.4,87,29.88,4.0,SW,6.9,-,N/A,,Overcast,230,2013-02-20 12:35:00
4:55 AM,32.0,28.4,87,29.88,5.0,South,6.9,-,N/A,,Overcast,190,2013-02-20 12:55:00
5:35 AM,32.0,28.4,87,29.89,10.0,SSW,3.5,-,N/A,,Overcast,200,2013-02-20 13:35:00
5:55 AM,32.0,28.4,87,29.89,10.0,South,5.8,-,N/A,,Overcast,190,2013-02-20 13:55:00
6:15 AM,32.0,28.4,87,29.89,10.0,SSW,5.8,-,N/A,,Overcast,210,2013-02-20 14:15:00
6:35 AM,32.0,28.4,87,29.89,10.0,SW,3.5,-,N/A,,Overcast,220,2013-02-20 14:35:00
6:55 AM,32.0,28.4,87,29.90,10.0,SSW,4.6,-,N/A,,Overcast,210,2013-02-20 14:55:00
7:15 AM,32.0,28.4,87,29.90,10.0,SSW,6.9,-,N/A,,Overcast,210,2013-02-20 15:15:00
7:35 AM,32.0,30.2,93,29.91,9.0,WSW,5.8,-,N/A,,Overcast,240,2013-02-20 15:35:00
7:55 AM,32.0,28.4,87,29.91,7.0,SW,5.8,-,N/A,,Overcast,230,2013-02-20 15:55:00
8:15 AM,32.0,30.2,93,29.92,8.0,WSW,4.6,-,N/A,,Overcast,250,2013-02-20 16:15:00
8:35 AM,33.8,30.2,87,29.92,10.0,West,5.8,-,N/A,,Overcast,260,2013-02-20 16:35:00
8:55 AM,33.8,28.4,81,29.92,10.0,SW,6.9,-,N/A,,Overcast,220,2013-02-20 16:55:00
9:15 AM,33.8,28.4,81,29.92,10.0,SW,6.9,-,N/A,,Overcast,230,2013-02-20 17:15:00
9:35 AM,33.8,28.4,81,29.92,8.0,WSW,8.1,-,N/A,,Overcast,250,2013-02-20 17:35:00
9:55 AM,33.8,30.2,87,29.93,10.0,WSW,8.1,-,N/A,,Overcast,240,2013-02-20 17:55:00
10:15 AM,33.8,30.2,87,29.92,10.0,West,9.2,-,N/A,,Overcast,260,2013-02-20 18:15:00
10:35 AM,33.8,28.4,81,29.92,10.0,SW,9.2,-,N/A,,Overcast,230,2013-02-20 18:35:00
10:55 AM,33.8,30.2,87,29.93,10.0,WSW,8.1,-,N/A,,Overcast,250,2013-02-20 18:55:00
11:15 AM,33.8,30.2,87,29.93,10.0,West,8.1,-,N/A,,Overcast,260,2013-02-20 19:15:00
11:35 AM,33.8,30.2,87,29.93,10.0,West,8.1,-,N/A,,Overcast,260,2013-02-20 19:35:00
11:55 AM,33.8,28.4,81,29.93,7.0,West,6.9,-,N/A,,Overcast,260,2013-02-20 19:55:00
12:15 PM,35.6,30.2,81,29.93,10.0,SW,6.9,-,N/A,,Overcast,230,2013-02-20 20:15:00
12:35 PM,35.6,30.2,81,29.93,10.0,West,8.1,-,N/A,,Overcast,270,2013-02-20 20:35:00
12:55 PM,35.6,28.4,75,29.92,10.0,WSW,9.2,-,N/A,,Overcast,240,2013-02-20 20:55:00
1:15 PM,35.6,28.4,75,29.92,10.0,SSW,10.4,-,N/A,,Overcast,210,2013-02-20 21:15:00
1:35 PM,37.4,28.4,70,29.91,10.0,SSW,8.1,-,N/A,,Overcast,210,2013-02-20 21:35:00
1:55 PM,37.4,26.6,65,29.91,10.0,SSW,8.1,-,N/A,,Overcast,200,2013-02-20 21:55:00
2:15 PM,35.6,26.6,70,29.91,10.0,SW,5.8,-,N/A,,Overcast,220,2013-02-20 22:15:00
2:35 PM,37.4,26.6,65,29.91,10.0,SW,9.2,-,N/A,,Overcast,230,2013-02-20 22:35:00
2:55 PM,39.2,26.6,61,29.91,10.0,WSW,6.9,-,N/A,,Mostly Cloudy,250,2013-02-20 22:55:00
3:15 PM,39.2,24.8,56,29.92,10.0,West,6.9,-,N/A,,Partly Cloudy,260,2013-02-20 23:15:00
3:35 PM,37.4,24.8,60,29.92,10.0,WSW,9.2,-,N/A,,Scattered Clouds,250,2013-02-20 23:35:00
3:55 PM,37.4,24.8,60,29.92,10.0,WSW,6.9,-,N/A,,Partly Cloudy,240,2013-02-20 23:55:00
4:15 PM,37.4,24.8,60,29.92,10.0,West,10.4,-,N/A,,Clear,270,2013-02-21 00:15:00
4:35 PM,35.6,24.8,65,29.93,10.0,West,8.1,-,N/A,,Clear,260,2013-02-21 00:35:00
4:55 PM,35.6,24.8,65,29.93,10.0,SSW,5.8,-,N/A,,Clear,210,2013-02-21 00:55:00
5:15 PM,33.8,21.2,60,29.93,10.0,South,6.9,-,N/A,,Clear,170,2013-02-21 01:15:00
5:35 PM,30.2,23.0,75,29.94,10.0,South,6.9,-,N/A,,Clear,180,2013-02-21 01:35:00
5:55 PM,28.4,21.2,74,29.95,10.0,South,5.8,-,N/A,,Clear,180,2013-02-21 01:55:00
6:15 PM,28.4,23.0,80,29.95,10.0,South,4.6,-,N/A,,Clear,180,2013-02-21 02:15:00
6:35 PM,28.4,24.8,86,29.95,10.0,SSE,9.2,-,N/A,,Clear,150,2013-02-21 02:35:00
6:55 PM,30.2,23.0,75,29.96,10.0,SSE,8.1,-,N/A,,Clear,160,2013-02-21 02:55:00
7:15 PM,30.2,24.8,80,29.96,10.0,SSE,6.9,-,N/A,,Clear,150,2013-02-21 03:15:00
7:35 PM,30.2,23.0,75,29.96,10.0,SSE,6.9,-,N/A,,Clear,150,2013-02-21 03:35:00
7:55 PM,28.4,23.0,80,29.96,10.0,SSE,6.9,-,N/A,,Clear,160,2013-02-21 03:55:00
8:15 PM,28.4,21.2,74,29.96,10.0,SSE,5.8,-,N/A,,Clear,160,2013-02-21 04:15:00
8:35 PM,28.4,23.0,80,29.96,10.0,SSE,5.8,-,N/A,,Clear,160,2013-02-21 04:35:00
8:55 PM,26.6,21.2,80,29.96,10.0,South,6.9,-,N/A,,Clear,170,2013-02-21 04:55:00
9:15 PM,26.6,21.2,80,29.96,10.0,South,6.9,-,N/A,,Clear,180,2013-02-21 05:15:00
9:35 PM,28.4,24.8,86,29.97,10.0,South,6.9,-,N/A,,Clear,180,2013-02-21 05:35:00
9:55 PM,26.6,23.0,86,29.97,10.0,SSE,5.8,-,N/A,,Clear,160,2013-02-21 05:55:00
10:15 PM,28.4,21.2,74,29.97,10.0,SSE,4.6,-,N/A,,Clear,160,2013-02-21 06:15:00
10:35 PM,24.8,21.2,86,29.97,10.0,Calm,Calm,-,N/A,,Clear,0,2013-02-21 06:35:00
10:55 PM,26.6,24.8,93,29.96,10.0,SSE,8.1,-,N/A,,Clear,160,2013-02-21 06:55:00
11:15 PM,28.4,21.2,74,29.96,10.0,South,8.1,-,N/A,,Clear,170,2013-02-21 07:15:00
11:35 PM,26.6,23.0,86,29.96,10.0,South,9.2,-,N/A,,Clear,170,2013-02-21 07:35:00
11:55 PM,26.6,23.0,86,29.97,10.0,South,8.1,-,N/A,,Clear,180,2013-02-21 07:55:00